Lapse_Rate
4.5 4.4 4.5 4.7 4.7 4.6 4.5 4.2 3.7 3.6 3.0 2.7 2.7 2.7 2.6 2.5 3.1 3.7 4.1 5.1 5.8 5.9 5.8 5.9 6.4 7.0 7.1 7.2 6.9 7.5 7.1 7.1 6.9 6.9 6.3 6.5 5.8 6.2 6.1 6.2 6.3 6.3 6.5 7.0 7.0 6.5 6.2
4.4 4.4 4.3 4.5 4.6 4.7 4.3 4.3 4.0 3.6 3.2 2.8 2.7 2.7 2.7 2.7 3.3 3.7 4.3 5.2 5.8 5.9 5.7 6.1 6.7 7.2 7.3 7.1 7.3 7.3 7.3 7.1 7.1 6.8 6.5 6.9 6.1 6.3 6.3 6.9 6.3 6.5 6.7 6.7 7.1 6.3 6.5
4.6 4.7 4.7 4.7 4.4 4.2 4.5 4.3 4.1 4.0 3.5 3.0 2.7 2.8 2.6 2.8 3.4 3.6 4.5 5.5 5.9 5.9 5.9 6.4 7.2 7.4 7.3 7.2 7.1 7.3 7.3 7.3 7.0 6.4 6.0 6.6 6.2 6.3 6.5 7.1 6.6 6.7 6.1 6.0 6.8 6.8 6.2
5.2 4.9 4.7 4.7 4.1 4.2 4.6 4.9 4.4 4.0 3.6 3.2 2.8 2.8 2.6 2.9 3.4 3.8 4.5 5.4 5.9 5.9 5.9 6.5 7.1 7.4 7.3 7.1 7.0 7.0 7.5 7.5 7.2 6.2 6.7 6.4 6.2 6.5 6.3 6.9 6.7 6.6 6.2 5.9 6.1 6.3 6.0
5.5 5.1 4.8 4.8 4.1 4.0 4.4 4.9 4.8 4.2 3.6 3.4 2.9 2.9 2.6 3.1 3.4 3.8 4.8 5.7 5.8 5.8 5.9 6.4 6.8 7.2 6.6 7.0 6.9 7.1 7.5 6.6 6.5 6.7 6.4 6.1 6.0 6.5 6.5 6.8 6.7 6.6 6.6 5.9 5.8 6.6 6.2
5.5 5.4 5.1 5.0 4.5 4.3 4.5 5.1 5.0 4.5 3.6 3.5 3.0 3.0 2.8 3.2 3.3 3.7 4.8 5.7 5.9 5.9 6.0 6.2 6.5 6.9 6.7 6.8 7.0 7.5 7.7 7.0 6.2 6.2 6.3 6.2 6.1 6.3 6.4 6.7 6.8 7.0 7.2 7.3 6.4 6.4 6.0
5.7 5.5 5.5 5.4 4.7 4.7 4.7 5.3 5.0 4.7 3.8 3.5 3.1 3.1 2.9 3.3 3.2 3.7 4.6 5.6 5.9 6.0 5.8 5.7 5.7 6.7 6.9 6.8 7.2 7.5 7.6 7.2 6.2 6.2 5.9 5.9 6.2 6.6 6.6 6.8 7.6 7.5 7.5 8.1 7.1 6.6 6.3
5.7 5.6 5.5 5.5 5.2 4.9 5.1 5.4 5.1 4.8 4.0 3.6 3.2 3.1 2.9 3.2 3.1 3.6 4.6 5.3 5.9 6.1 5.7 5.9 5.9 6.6 7.0 7.0 7.0 7.6 7.6 7.2 6.7 6.5 6.0 6.1 6.0 6.6 7.2 7.5 7.6 8.1 8.0 8.3 8.0 6.5 6.4
5.6 5.5 5.8 5.7 5.3 5.0 5.2 5.5 5.3 4.9 4.2 3.7 3.4 3.1 2.9 3.2 3.1 3.4 4.3 5.5 5.9 5.9 5.8 5.9 5.9 6.4 7.0 7.1 7.1 7.2 7.2 6.8 6.4 6.6 6.2 6.2 6.3 6.4 6.7 6.6 7.0 7.9 7.9 7.8 7.3 6.7 6.9
5.8 5.8 5.7 5.7 5.4 5.2 5.3 5.5 5.4 5.0 4.3 4.0 3.5 3.1 3.0 3.1 3.1 3.1 4.1 5.8 5.9 5.8 5.9 5.9 6.1 6.4 7.1 7.0 7.1 7.0 7.0 6.5 6.7 6.7 6.4 6.3 6.2 6.5 6.8 7.1 7.5 7.4 7.8 7.8 7.5 7.0 7.2
6.2 5.8 5.9 5.7 5.5 5.2 5.5 5.6 5.5 5.0 4.5 4.2 3.5 3.1 3.0 3.0 2.7 3.0 3.9 5.5 6.0 5.9 6.7 6.2 6.2 6.5 6.9 6.9 6.6 7.1 6.9 6.9 6.4 6.5 6.7 6.5 6.5 6.4 6.7 7.4 7.7 7.7 7.5 7.7 7.3 7.4 7.7
5.9 5.9 5.7 5.7 5.5 5.3 5.6 5.6 5.5 5.0 4.6 4.2 3.6 3.1 2.8 3.0 2.8 2.8 3.7 5.3 5.8 5.9 6.5 6.3 6.4 6.4 6.6 7.1 7.1 6.8 6.9 6.8 6.4 6.7 6.8 6.4 6.2 6.5 6.7 7.0 6.8 7.2 7.2 7.3 7.2 7.9 7.3
5.3 5.5 5.8 5.7 5.4 5.2 5.5 5.6 5.5 5.1 4.6 4.2 3.6 3.0 2.8 2.9 2.6 2.6 3.4 5.3 5.7 6.1 6.3 6.2 6.4 6.3 6.7 6.6 7.1 6.9 6.8 6.5 6.4 6.4 6.2 6.6 6.1 6.5 6.6 6.9 7.1 7.2 7.3 7.4 7.6 7.1 7.5
5.8 5.7 5.9 5.8 5.4 5.4 5.3 5.6 5.5 5.1 4.5 4.4 3.5 2.8 2.9 2.9 2.5 2.5 3.1 5.0 5.8 5.9 6.2 6.4 6.6 6.5 6.7 6.7 6.6 6.8 6.6 6.5 6.1 6.0 6.2 6.4 6.2 6.3 6.3 6.9 6.9 7.3 8.0 7.9 7.5 7.6 7.9
6.1 5.9 6.0 5.9 5.4 5.4 5.3 5.6 5.5 5.2 4.5 4.3 3.3 2.7 2.9 2.7 2.4 2.2 2.8 4.2 5.8 6.0 6.0 6.2 6.5 6.8 6.4 6.8 6.5 6.8 6.6 6.2 6.1 6.3 6.2 6.4 6.0 6.4 6.2 6.4 6.8 7.0 6.6 6.3 7.0 7.1 7.7
6.0 5.9 6.1 5.8 5.5 5.3 5.4 5.6 5.6 5.2 4.5 4.1 3.1 2.7 2.8 2.5 2.3 2.0 2.5 3.7 5.5 5.8 6.0 6.3 6.5 6.6 6.7 6.5 6.5 6.6 6.3 6.5 6.1 6.3 6.7 6.5 6.6 6.5 6.6 6.4 6.4 6.6 6.7 6.9 6.7 7.2 7.8
5.7 5.4 5.5 5.9 5.5 5.2 5.4 5.5 5.6 5.2 4.7 3.9 3.2 2.7 2.6 2.4 2.1 1.8 2.4 3.5 5.1 5.8 6.1 6.0 6.2 6.5 6.5 6.6 6.5 6.4 6.1 6.2 6.0 6.4 6.7 6.4 6.3 6.4 6.1 6.1 6.4 6.5 6.1 6.6 7.0 7.1 8.0
5.6 5.3 5.5 5.9 5.7 5.1 5.4 5.6 5.5 5.3 4.9 4.0 3.2 2.8 2.6 2.4 1.8 1.7 2.4 3.3 4.5 5.7 6.1 6.1 6.3 6.3 6.4 6.6 6.5 6.1 5.9 5.9 6.1 6.3 6.1 6.6 6.2 5.9 6.2 6.2 6.5 6.5 6.8 7.0 7.3 7.1 7.3
5.5 5.3 5.1 5.3 5.2 5.2 5.3 5.6 5.5 5.4 5.0 4.0 3.3 2.9 2.7 2.5 1.7 1.7 2.3 3.0 4.3 5.8 6.2 6.1 6.2 6.5 6.6 6.6 6.5 6.1 6.3 6.4 6.2 6.2 6.2 6.2 6.2 6.1 6.1 6.1 6.3 6.3 6.6 6.8 7.0 6.5 6.7
5.4 5.6 5.0 5.2 5.2 5.1 5.2 5.6 5.5 5.4 4.9 3.9 3.4 3.0 2.8 2.6 2.1 1.7 2.1 2.9 4.1 5.5 6.1 6.2 6.3 6.4 6.3 6.4 6.3 6.0 6.1 6.0 6.2 6.2 6.1 6.2 6.2 6.6 7.3 7.1 6.9 6.4 6.8 6.9 6.9 6.3 7.0
5.5 5.3 5.1 5.5 5.6 5.2 5.4 5.7 5.6 5.3 4.8 4.1 3.5 3.0 3.0 2.8 2.2 1.8 2.0 2.5 3.6 4.8 6.0 6.2 6.2 6.2 6.1 6.3 6.1 5.8 5.9 5.9 6.1 6.2 6.0 6.2 6.3 6.7 6.7 6.9 6.9 6.7 6.5 6.6 6.3 6.5 6.1
5.4 5.3 5.1 4.9 5.0 4.8 5.3 5.7 5.6 5.3 5.0 4.2 3.4 3.3 2.9 2.9 2.6 2.0 1.8 2.3 3.3 4.4 5.6 6.1 6.2 6.2 6.1 6.0 6.0 5.8 5.8 5.7 5.7 5.7 6.1 6.2 6.2 6.4 6.6 6.6 6.5 6.6 6.6 6.2 6.4 6.5 6.3
5.2 5.2 5.4 5.0 5.2 4.9 5.2 5.5 5.5 5.2 5.0 4.2 3.7 3.5 3.1 3.0 2.4 1.9 1.9 2.1 3.1 4.4 5.3 6.1 6.3 5.9 6.2 6.2 6.3 6.2 6.2 6.1 5.9 5.8 5.9 5.9 6.1 6.0 6.2 6.2 6.3 6.5 6.5 5.9 5.8 5.9 5.8
5.2 5.3 5.0 5.0 5.2 4.9 5.3 5.4 5.3 5.2 4.8 4.3 4.0 3.7 3.3 3.1 2.5 1.9 2.2 2.4 2.9 4.0 4.9 5.7 6.2 6.0 6.1 6.1 6.1 6.2 6.2 6.2 6.2 6.2 6.1 6.0 6.0 5.8 5.9 6.1 6.6 6.3 6.3 6.2 5.9 5.5 5.5
5.5 5.4 5.1 5.1 5.1 5.0 5.3 5.1 5.1 5.1 4.7 4.3 4.2 3.8 3.4 3.1 2.8 2.5 2.3 2.3 2.8 3.5 4.4 5.4 6.0 6.1 6.2 6.1 5.9 5.9 6.0 5.8 6.0 6.1 6.1 6.1 6.1 6.1 6.3 6.8 6.9 6.2 6.3 6.0 6.0 5.5 5.8
5.8 5.4 5.2 5.1 5.1 4.9 5.3 5.2 5.2 5.0 4.6 4.1 4.2 4.0 3.6 3.3 2.8 2.7 2.4 2.3 2.6 3.3 3.9 4.9 5.8 6.2 6.3 6.2 6.2 6.5 6.6 6.5 6.1 6.0 6.1 6.2 6.2 6.3 6.2 6.7 7.4 6.0 6.1 6.1 6.1 5.9 5.7
5.9 5.3 5.2 5.0 5.0 4.8 5.2 5.2 5.2 4.9 4.4 4.2 4.2 4.2 3.8 3.5 3.2 2.7 2.2 2.2 2.5 2.9 3.5 4.7 5.6 6.0 6.1 6.1 6.3 6.6 6.6 6.3 6.5 6.3 5.9 5.9 6.0 6.1 6.2 6.4 6.6 5.9 6.1 6.3 6.4 6.1 6.0
5.3 5.6 5.2 5.0 5.0 5.4 5.5 5.1 5.2 4.8 4.5 4.3 4.3 4.3 4.1 3.7 3.3 2.8 2.5 2.5 2.3 2.5 2.9 4.0 4.9 5.5 6.0 6.3 6.3 6.4 6.7 6.5 6.7 6.6 6.5 6.6 6.6 6.5 6.3 6.2 6.5 6.3 6.2 6.3 6.4 6.4 6.5
5.3 5.5 5.2 4.8 4.7 5.3 5.4 5.0 5.1 4.6 4.5 4.4 4.4 4.4 4.3 3.8 3.7 3.0 2.7 2.7 2.7 2.7 3.0 3.4 4.5 5.5 5.7 5.9 6.2 6.2 6.1 6.4 6.5 6.8 6.6 6.4 6.4 6.7 6.5 6.5 6.7 6.5 6.4 6.5 6.5 6.6 6.6
Wind_Speed
12 13 12 11 13 12 12 10 13 14 16 17 17 14 14 13 13 16 14 12 11 10 8 8 9 9 8 6 9 6 6 7 10 8 10 10 12 16 24 24 21 20 13 19 19 17 15
17 15 14 13 12 12 13 13 13 15 15 17 18 15 15 14 14 13 16 15 12 11 9 8 8 9 7 11 5 4 7 7 8 9 8 12 9 17 17 22 22 18 10 15 20 13 12
20 18 15 15 14 13 14 13 15 16 14 15 18 19 15 15 14 12 14 18 14 11 9 8 7 7 9 12 4 6 8 7 7 9 11 12 10 9 11 20 21 11 16 16 14 8 16
23 20 17 15 15 14 15 14 15 15 13 15 18 17 15 16 16 14 13 15 17 11 10 8 6 7 8 0 8 10 7 6 8 5 5 4 6 10 10 13 19 23 21 4 16 20 9
25 23 20 17 16 14 15 15 16 13 14 15 17 17 16 16 15 13 13 15 17 12 8 7 7 5 9 3 6 9 8 6 9 5 5 2 5 7 19 17 16 19 16 15 8 12 9
25 27 22 18 15 15 14 14 15 14 14 14 15 16 16 15 13 13 14 15 11 6 6 5 5 6 5 6 9 7 9 5 9 9 9 3 1 8 16 17 18 23 21 20 13 15 14
28 27 21 18 14 16 13 13 15 14 14 14 14 16 15 13 13 13 13 4 4 5 7 6 5 9 4 7 4 4 4 5 7 11 4 4 1 10 25 24 16 18 19 16 19 13 18
27 32 20 19 16 16 13 12 14 13 14 14 15 15 14 13 15 11 6 4 3 4 3 5 7 7 7 2 3 2 4 4 4 3 9 5 1 4 7 18 6 15 16 10 10 10 11
26 21 22 19 17 15 12 12 13 13 13 14 15 14 14 14 12 6 8 4 2 3 4 3 4 6 4 4 2 2 1 2 1 4 11 7 3 3 6 12 10 14 16 15 12 7 12
23 25 23 20 18 15 11 12 12 13 11 14 14 15 14 12 5 1 3 4 2 3 3 3 1 1 2 3 3 2 1 1 4 9 15 6 1 2 4 14 12 13 13 9 9 12 9
18 20 22 21 19 15 11 11 10 13 11 14 14 15 13 6 3 2 3 3 2 3 2 1 1 4 3 3 4 4 3 6 3 7 4 4 8 6 8 16 12 12 9 12 12 16 2
18 24 26 23 20 16 12 10 9 11 10 12 14 14 3 5 5 1 3 3 3 3 1 2 2 2 3 2 4 4 1 4 7 6 11 5 5 0 7 9 4 13 13 10 6 7 5
20 28 28 25 21 17 13 9 7 9 8 10 10 2 5 3 2 4 4 3 3 2 2 3 2 2 6 3 4 4 5 7 3 4 5 4 6 8 10 11 11 16 17 6 5 4 6
21 26 27 26 22 19 14 9 6 6 5 6 2 4 1 2 0 3 3 3 2 1 1 3 5 3 2 3 3 4 5 3 1 6 2 2 5 7 5 8 8 15 14 4 6 6 8
24 28 28 27 24 19 15 11 7 4 3 1 6 3 1 2 3 2 3 4 2 1 3 1 4 3 2 1 2 2 2 5 4 2 0 2 3 2 3 3 6 10 6 3 2 3 0
26 30 30 29 25 21 16 12 7 4 3 9 3 3 2 2 2 3 3 0 1 0 2 3 4 4 3 4 4 4 5 1 4 1 3 4 4 4 4 4 2 4 8 3 1 3 4
28 31 32 29 25 21 18 13 8 5 5 12 4 3 3 2 3 3 2 1 1 3 2 3 3 2 2 3 5 3 3 2 3 4 1 6 4 2 8 7 10 4 4 3 2 3 3
29 33 33 29 26 22 19 14 11 7 11 8 3 2 3 1 2 2 1 2 1 1 2 0 1 5 3 1 4 2 3 3 4 4 6 2 4 4 2 2 7 10 11 13 5 4 3
30 33 34 31 28 24 20 16 13 13 21 5 3 2 2 3 2 3 2 2 2 0 2 1 1 1 2 2 3 4 5 2 3 3 3 3 4 5 4 3 3 7 10 7 10 3 5
34 34 33 31 28 25 21 17 14 14 21 3 4 3 2 3 4 4 4 3 4 2 2 1 1 2 2 3 1 7 6 4 3 3 2 3 4 3 3 2 6 10 14 14 12 5 10
35 34 34 31 27 25 21 17 14 13 20 4 3 3 4 4 7 7 4 3 6 3 0 1 3 1 0 4 4 5 5 8 5 2 3 3 2 2 4 5 3 3 11 15 13 17 13
35 35 35 31 28 24 21 17 14 17 19 3 4 4 3 4 3 8 5 6 6 3 3 3 3 4 1 5 5 3 6 3 4 5 2 1 2 2 1 2 2 5 7 8 14 16 16
34 34 35 33 28 25 21 17 15 22 19 3 2 1 4 5 8 8 6 6 5 2 4 5 2 5 8 7 5 4 3 3 2 3 5 2 4 2 2 1 3 6 8 10 8 8 7
34 35 34 32 29 25 20 17 15 24 14 1 3 4 4 6 8 7 6 4 5 3 3 2 3 1 3 2 2 2 4 4 4 3 1 4 4 1 0 2 3 4 1 1 3 4 5
36 37 36 32 29 25 20 15 13 21 15 2 3 3 3 6 6 5 9 5 8 2 3 3 6 3 2 2 3 5 4 4 4 3 2 3 2 1 2 4 3 3 3 1 2 6 8
34 37 36 33 28 25 22 17 15 19 15 5 3 2 1 7 4 6 8 7 5 5 4 2 1 4 3 3 2 4 4 2 4 3 1 2 2 3 2 2 3 7 4 1 3 6 7
36 36 36 33 29 26 24 21 18 17 13 5 3 2 2 4 4 2 3 5 0 0 2 3 2 1 3 4 5 4 3 2 4 5 5 5 4 7 6 4 1 5 3 2 5 3 6
34 35 34 32 29 27 25 21 17 16 15 3 4 3 1 4 6 4 2 2 2 2 4 3 3 3 1 4 1 1 2 2 3 4 1 4 3 3 3 3 6 5 3 4 3 2 8
35 35 33 31 28 27 24 22 21 15 15 7 4 4 7 6 6 9 9 7 6 6 2 1 2 3 2 1 1 1 1 1 2 2 1 2 4 3 3 2 4 3 4 4 3 8 10
Wind_Direction
283 279 282 286 293 302 309 319 314 316 322 323 325 328 327 326 326 322 323 304 304 302 310 316 330 334 309 264 266 86 334 321 292 167 155 239 257 208 211 201 188 211 226 223 157 170 189
262 264 268 273 284 288 295 305 310 312 313 320 321 320 320 321 316 318 315 312 294 296 293 303 320 314 284 275 54 335 324 295 270 195 176 215 246 214 222 207 195 206 204 257 156 173 185
265 268 264 272 278 282 290 297 304 309 316 318 317 323 319 323 315 314 312 307 304 290 290 286 295 280 275 259 309 330 306 271 257 199 201 219 265 269 227 205 197 201 187 253 191 190 200
257 259 254 259 271 278 284 290 296 310 320 318 317 324 317 320 323 310 318 300 295 287 282 279 273 280 272 29 298 290 282 242 245 240 219 290 351 321 269 185 184 211 186 195 207 191 151
251 255 250 240 257 264 277 289 295 308 314 315 314 316 313 316 320 310 320 304 295 295 269 259 238 253 280 121 249 307 261 241 186 174 141 355 49 293 209 185 183 197 208 183 186 205 195
261 254 242 238 245 259 270 282 294 308 311 317 318 320 319 318 319 319 320 301 298 242 220 235 255 266 232 313 320 296 270 220 171 165 160 238 103 255 178 175 185 192 214 189 176 188 202
274 255 235 227 242 256 265 280 292 306 311 316 313 314 315 320 320 322 314 254 211 190 224 284 316 284 319 336 281 252 293 185 201 187 159 123 133 190 175 181 189 189 198 206 185 181 186
280 277 216 218 229 247 259 273 290 300 309 316 311 312 314 320 316 313 282 252 2 353 269 237 273 273 271 69 304 354 308 157 201 165 171 130 201 242 207 179 213 184 178 201 139 165 187
284 271 209 212 226 238 252 269 286 297 308 311 312 313 316 316 315 279 242 268 294 296 261 143 288 290 299 221 62 75 10 175 105 178 167 109 354 286 198 153 174 182 173 166 174 155 207
272 261 207 208 220 230 243 264 284 295 310 309 311 311 306 316 284 194 212 189 230 302 269 125 175 345 274 261 92 333 210 52 205 169 123 118 42 55 318 167 166 161 192 171 169 171 208
269 236 202 206 217 221 232 254 280 297 308 308 312 307 299 243 321 225 63 169 257 236 280 49 129 343 304 18 94 6 230 207 116 102 210 105 152 198 234 174 179 141 158 167 174 208 273
260 225 201 204 211 212 222 244 275 292 309 317 321 309 249 168 227 40 146 203 239 239 52 64 47 1 134 53 157 172 284 198 86 52 44 66 105 189 203 98 90 142 147 135 194 228 239
257 212 194 199 204 206 214 229 256 284 315 325 334 37 213 182 68 131 175 225 233 329 138 135 100 4 348 128 106 100 144 131 40 68 10 83 127 232 206 116 135 155 151 145 178 198 238
244 202 195 196 201 200 203 211 231 279 316 331 272 231 118 317 66 162 229 249 265 138 152 78 139 156 181 106 32 80 124 112 50 167 153 124 155 134 161 154 166 177 177 171 189 197 197
233 199 193 193 194 199 199 198 214 255 288 127 196 191 180 98 130 240 261 251 84 136 8 238 193 164 130 238 143 70 258 130 173 205 185 78 75 95 231 196 221 185 230 20 333 27 43
216 193 194 189 190 192 195 193 199 211 236 177 206 204 141 189 255 262 255 295 93 329 319 312 24 13 71 110 155 166 203 73 148 223 300 130 106 267 141 194 167 250 153 172 299 185 209
203 194 191 185 187 187 188 189 184 191 198 184 221 223 103 210 247 246 284 76 219 153 255 346 78 76 69 172 174 153 71 98 147 151 315 147 147 224 166 203 187 173 189 231 279 334 310
199 190 186 183 181 185 184 184 176 172 159 173 191 222 119 248 258 250 244 183 265 102 136 257 80 87 154 98 79 77 122 35 153 174 138 58 109 141 157 285 312 249 228 214 222 185 243
189 184 180 181 177 182 183 182 174 172 180 153 180 145 135 254 231 206 147 204 272 276 65 134 110 44 31 104 114 111 94 135 148 154 147 196 156 132 129 219 221 230 218 237 238 13 214
175 178 178 177 176 178 182 180 178 185 196 237 164 148 152 220 239 273 195 176 142 70 81 49 53 169 152 85 73 135 118 156 212 255 329 260 184 279 244 55 162 201 220 213 231 224 234
173 177 176 170 178 175 180 178 179 189 185 216 206 161 161 187 208 215 234 175 170 158 156 27 133 55 34 129 110 111 102 131 193 153 215 275 138 67 48 59 72 223 223 220 217 235 245
174 172 171 168 174 174 179 177 173 176 165 226 178 170 201 143 150 195 191 190 181 136 315 100 100 69 161 89 29 110 137 181 167 184 167 99 126 107 315 2 278 271 247 237 239 244 246
175 168 169 165 172 174 176 176 172 172 185 176 167 191 244 143 181 202 184 157 147 228 64 51 72 114 85 45 28 45 12 22 43 217 180 188 138 187 148 277 308 268 252 233 234 260 277
170 161 166 165 168 173 174 172 176 185 196 125 177 171 204 165 193 198 141 153 151 77 110 42 37 329 41 299 181 217 120 114 98 61 348 159 157 124 121 238 234 81 75 358 268 294 293
164 159 164 164 171 166 165 164 170 184 184 192 151 213 184 145 156 155 156 135 123 77 115 90 59 26 335 218 187 156 160 177 122 83 115 297 181 136 252 231 337 129 100 58 260 82 38
169 161 162 163 169 161 158 141 149 161 168 155 115 301 169 141 164 128 147 172 154 152 184 132 61 333 270 235 237 221 200 148 177 152 80 136 260 239 173 269 252 87 98 350 305 192 28
172 164 160 162 164 160 156 147 144 146 157 134 105 316 113 108 99 146 144 165 34 252 155 128 50 260 336 203 214 222 211 334 194 191 180 189 211 219 223 254 258 33 356 212 230 66 354
182 164 158 157 160 156 153 158 155 142 135 104 96 6 35 91 79 66 49 108 136 271 190 110 176 176 26 229 236 196 276 140 276 45 279 194 198 200 193 223 241 8 185 296 39 322 335
171 162 155 149 156 148 149 152 149 141 137 127 104 74 62 71 92 91 70 45 28 16 339 44 49 86 95 51 227 68 122 178 349 179 160 235 341 339 284 14 91 20 328 111 6 331 327